KHY3036 RPLC-RPVE

Flight info

Callsign KHY3036
Flight time 0h 38m
Altitude 29000
Route OLIVA2E OLIVA W16 MIA A461 VERDE W24 TAPER TAPER7A
Aircraft A21N/M-SDE3FGHIRWY/LB1

Departure

Time 2026-04-26 14:22
Airport Clark International Airport / Clark Air Base (RPLC)

Arrival

Time 2026-04-26 15:01
Airport Godofredo P. Ramos Airport (RPVE)
Time Latitude Longitude Altitude Speed Heading
2026-04-26 13:56 15.19485 120.55998 490 ft 0 kts 291°
2026-04-26 14:13 15.19481 120.56008 490 ft 2 kts 291°
2026-04-26 14:13 15.19476 120.56023 490 ft 2 kts 291°
2026-04-26 14:14 15.19471 120.56037 490 ft 2 kts 291°
2026-04-26 14:14 15.19467 120.56048 490 ft 0 kts 291°
2026-04-26 14:14 15.19464 120.56061 490 ft 2 kts 253°
2026-04-26 14:14 15.19473 120.56073 490 ft 1 kts 210°
2026-04-26 14:15 15.19476 120.56075 490 ft 1 kts 200°
2026-04-26 14:15 15.19448 120.56063 490 ft 5 kts 200°
2026-04-26 14:15 15.19427 120.56055 490 ft 0 kts 201°
2026-04-26 14:17 15.19421 120.56052 490 ft 2 kts 201°
2026-04-26 14:17 15.19406 120.56046 490 ft 3 kts 201°
2026-04-26 14:18 15.19374 120.56033 490 ft 6 kts 201°
2026-04-26 14:18 15.19319 120.56011 490 ft 10 kts 201°
2026-04-26 14:18 15.19243 120.55981 490 ft 13 kts 201°
2026-04-26 14:18 15.19151 120.55963 490 ft 13 kts 152°
2026-04-26 14:19 15.19091 120.56013 490 ft 11 kts 188°
2026-04-26 14:19 15.19008 120.55981 490 ft 14 kts 201°
2026-04-26 14:19 15.18909 120.55940 490 ft 16 kts 201°
2026-04-26 14:19 15.18794 120.55896 490 ft 18 kts 200°
2026-04-26 14:20 15.18666 120.55846 490 ft 20 kts 201°
2026-04-26 14:20 15.18529 120.55791 490 ft 21 kts 201°
2026-04-26 14:20 15.18384 120.55733 490 ft 23 kts 201°
2026-04-26 14:20 15.18276 120.55702 490 ft 14 kts 158°
2026-04-26 14:21 15.18220 120.55800 490 ft 17 kts 111°
2026-04-26 14:21 15.18175 120.55923 490 ft 19 kts 111°
2026-04-26 14:21 15.18144 120.56036 490 ft 15 kts 74°
2026-04-26 14:21 15.18290 120.56122 490 ft 46 kts 20°
2026-04-26 14:22 15.18895 120.56362 490 ft 135 kts 21°
2026-04-26 14:22 15.19861 120.56754 1081 ft 155 kts 21°
2026-04-26 14:22 15.20805 120.57150 2052 ft 150 kts 21°
2026-04-26 14:22 15.21763 120.57552 2798 ft 156 kts 20°
2026-04-26 14:23 15.22755 120.58118 3336 ft 174 kts 44°
2026-04-26 14:23 15.23285 120.59282 3857 ft 196 kts 81°
2026-04-26 14:23 15.22989 120.60717 4405 ft 218 kts 120°
2026-04-26 14:23 15.21780 120.61767 4941 ft 243 kts 154°
2026-04-26 14:24 15.20146 120.62453 5481 ft 268 kts 160°
2026-04-26 14:24 15.18332 120.63107 6173 ft 286 kts 161°
2026-04-26 14:24 15.16439 120.63796 7101 ft 294 kts 161°
2026-04-26 14:24 15.14510 120.64521 8117 ft 299 kts 160°
2026-04-26 14:25 15.12553 120.65275 9110 ft 304 kts 160°
2026-04-26 14:25 15.10598 120.66037 10067 ft 309 kts 160°
2026-04-26 14:25 15.08567 120.66835 10877 ft 320 kts 160°
2026-04-26 14:25 15.06424 120.67678 11479 ft 338 kts 160°
2026-04-26 14:26 15.04229 120.68544 12302 ft 346 kts 160°
2026-04-26 14:26 15.01963 120.69437 13258 ft 350 kts 160°
2026-04-26 14:26 14.99700 120.70327 14192 ft 354 kts 160°
2026-04-26 14:26 14.97386 120.71242 15118 ft 359 kts 159°
2026-04-26 14:27 14.95122 120.72288 16021 ft 363 kts 153°
2026-04-26 14:27 14.92908 120.73572 16927 ft 366 kts 148°
2026-04-26 14:27 14.90786 120.74992 17815 ft 370 kts 146°
2026-04-26 14:27 14.88642 120.76464 18694 ft 373 kts 146°
2026-04-26 14:28 14.86500 120.77928 19535 ft 376 kts 146°
2026-04-26 14:28 14.84293 120.79431 20352 ft 380 kts 146°
2026-04-26 14:28 14.82106 120.80918 21124 ft 383 kts 146°
2026-04-26 14:28 14.79725 120.82535 21936 ft 387 kts 146°
2026-04-26 14:29 14.77353 120.84146 22712 ft 391 kts 146°
2026-04-26 14:29 14.74950 120.85777 23463 ft 395 kts 146°
2026-04-26 14:29 14.72494 120.87443 24202 ft 398 kts 146°
2026-04-26 14:29 14.70043 120.89105 25023 ft 398 kts 146°
2026-04-26 14:30 14.67689 120.90700 25923 ft 394 kts 146°
2026-04-26 14:30 14.65296 120.92321 26794 ft 391 kts 146°
2026-04-26 14:30 14.62894 120.93950 27603 ft 389 kts 146°
2026-04-26 14:30 14.60521 120.95557 28272 ft 390 kts 146°
2026-04-26 14:31 14.58143 120.97167 28755 ft 394 kts 146°
2026-04-26 14:31 14.55678 120.98837 28921 ft 408 kts 146°
2026-04-26 14:31 14.53026 121.00422 28926 ft 426 kts 154°
2026-04-26 14:31 14.50029 121.01580 28932 ft 443 kts 164°
2026-04-26 14:32 14.46738 121.02193 28934 ft 459 kts 174°
2026-04-26 14:32 14.43342 121.02321 28938 ft 473 kts 178°
2026-04-26 14:32 14.39833 121.02338 28936 ft 484 kts 179°
2026-04-26 14:33 14.32806 121.02347 28934 ft 489 kts 179°
2026-04-26 14:33 14.25623 121.02396 28933 ft 490 kts 179°
2026-04-26 14:34 14.18367 121.02468 28933 ft 490 kts 179°
2026-04-26 14:34 14.11213 121.02543 28933 ft 490 kts 179°
2026-04-26 14:35 14.03986 121.02617 28933 ft 490 kts 179°
2026-04-26 14:35 13.96777 121.02685 28933 ft 490 kts 179°
2026-04-26 14:36 13.89541 121.02756 28933 ft 490 kts 179°
2026-04-26 14:36 13.82346 121.02828 28933 ft 490 kts 179°
2026-04-26 14:37 13.75150 121.02901 28933 ft 490 kts 179°
2026-04-26 14:37 13.67928 121.02974 28933 ft 490 kts 179°
2026-04-26 14:38 13.60715 121.03049 28933 ft 489 kts 179°
2026-04-26 14:38 13.53511 121.03390 28930 ft 488 kts 169°
2026-04-26 14:39 13.46742 121.05764 28932 ft 485 kts 150°
2026-04-26 14:39 13.40784 121.09803 28935 ft 483 kts 144°
2026-04-26 14:40 13.34991 121.13966 28934 ft 477 kts 146°
2026-04-26 14:40 13.28724 121.17035 28929 ft 476 kts 167°
2026-04-26 14:41 13.21850 121.17736 28933 ft 476 kts 177°
2026-04-26 14:41 13.14811 121.18044 28928 ft 476 kts 174°
2026-04-26 14:41 13.11612 121.18868 28703 ft 477 kts 158°
2026-04-26 14:42 13.08528 121.20660 28432 ft 480 kts 144°
2026-04-26 14:42 13.05803 121.22953 27986 ft 483 kts 140°
2026-04-26 14:42 13.03121 121.25331 27298 ft 481 kts 140°
2026-04-26 14:42 13.00453 121.27701 26499 ft 478 kts 140°
2026-04-26 14:43 12.97817 121.30022 25669 ft 474 kts 140°
2026-04-26 14:43 12.95189 121.32314 24826 ft 469 kts 140°
2026-04-26 14:43 12.92567 121.34589 23974 ft 477 kts 141°
2026-04-26 14:43 12.89849 121.36938 23258 ft 479 kts 141°
2026-04-26 14:44 12.87182 121.39228 22666 ft 486 kts 141°
2026-04-26 14:44 12.84465 121.41555 22076 ft 484 kts 141°
2026-04-26 14:44 12.81712 121.43915 21490 ft 481 kts 141°
2026-04-26 14:44 12.79026 121.46220 20959 ft 478 kts 141°
2026-04-26 14:45 12.76345 121.48523 20446 ft 474 kts 141°
2026-04-26 14:45 12.74581 121.50038 20106 ft 473 kts 141°
2026-04-26 14:45 12.71048 121.53075 19361 ft 468 kts 141°
2026-04-26 14:45 12.68441 121.55315 18783 ft 464 kts 141°
2026-04-26 14:46 12.65818 121.57569 18172 ft 461 kts 141°
2026-04-26 14:46 12.63387 121.59657 17612 ft 457 kts 141°
2026-04-26 14:46 12.60958 121.61743 17052 ft 454 kts 141°
2026-04-26 14:46 12.58574 121.63790 16502 ft 451 kts 141°
2026-04-26 14:47 12.56216 121.65816 15953 ft 448 kts 141°
2026-04-26 14:47 12.53779 121.67922 15386 ft 445 kts 141°
2026-04-26 14:47 12.51450 121.69933 14843 ft 441 kts 141°
2026-04-26 14:47 12.49117 121.71941 14298 ft 438 kts 141°
2026-04-26 14:48 12.46787 121.73942 13753 ft 435 kts 141°
2026-04-26 14:48 12.44460 121.75935 13206 ft 433 kts 141°
2026-04-26 14:48 12.42173 121.77895 12667 ft 430 kts 141°
2026-04-26 14:48 12.39903 121.79838 12131 ft 427 kts 141°
2026-04-26 14:49 12.37588 121.81670 11581 ft 409 kts 151°
2026-04-26 14:49 12.35073 121.82583 11077 ft 371 kts 175°
2026-04-26 14:49 12.32608 121.82415 10664 ft 355 kts 193°
2026-04-26 14:49 12.30241 121.81782 10226 ft 347 kts 197°
2026-04-26 14:50 12.27930 121.81119 10085 ft 344 kts 196°
2026-04-26 14:50 12.25616 121.80502 9984 ft 340 kts 195°
2026-04-26 14:50 12.23371 121.79947 9724 ft 329 kts 194°
2026-04-26 14:50 12.21189 121.79436 9368 ft 321 kts 193°
2026-04-26 14:51 12.19037 121.78947 9016 ft 313 kts 193°
2026-04-26 14:51 12.16945 121.78484 8689 ft 305 kts 193°
2026-04-26 14:51 12.14899 121.78036 8387 ft 297 kts 193°
2026-04-26 14:51 12.12896 121.77599 8063 ft 291 kts 193°
2026-04-26 14:52 12.10961 121.77180 7702 ft 286 kts 192°
2026-04-26 14:52 12.09034 121.76765 7345 ft 281 kts 192°
2026-04-26 14:52 12.07118 121.76353 6929 ft 279 kts 192°
2026-04-26 14:52 12.05241 121.75949 6536 ft 276 kts 192°
2026-04-26 14:53 12.03378 121.75546 6179 ft 272 kts 192°
2026-04-26 14:53 12.01552 121.75152 5841 ft 268 kts 192°
2026-04-26 14:53 11.99739 121.74756 5522 ft 264 kts 191°
2026-04-26 14:53 11.97969 121.74376 5214 ft 260 kts 192°
2026-04-26 14:54 11.96219 121.74001 4896 ft 257 kts 191°
2026-04-26 14:54 11.94466 121.73620 4585 ft 254 kts 192°
2026-04-26 14:54 11.92747 121.73245 4280 ft 252 kts 189°
2026-04-26 14:54 11.91033 121.73180 4066 ft 243 kts 170°
2026-04-26 14:55 11.89488 121.73704 4024 ft 228 kts 155°
2026-04-26 14:55 11.88126 121.74403 3977 ft 214 kts 153°
2026-04-26 14:55 11.86839 121.75085 3921 ft 202 kts 152°
2026-04-26 14:55 11.85606 121.75732 3881 ft 197 kts 152°
2026-04-26 14:56 11.84433 121.76463 3746 ft 197 kts 133°
2026-04-26 14:56 11.83866 121.77694 3551 ft 199 kts 94°
2026-04-26 14:56 11.84140 121.79073 3377 ft 200 kts 68°
2026-04-26 14:56 11.84777 121.80345 3175 ft 199 kts 62°
2026-04-26 14:57 11.85459 121.81567 2917 ft 199 kts 60°
2026-04-26 14:57 11.86117 121.82798 2647 ft 198 kts 60°
2026-04-26 14:57 11.86756 121.84055 2380 ft 196 kts 62°
2026-04-26 14:57 11.87355 121.85262 2123 ft 192 kts 62°
2026-04-26 14:58 11.87952 121.86460 1935 ft 183 kts 62°
2026-04-26 14:58 11.88516 121.87592 1653 ft 175 kts 62°
2026-04-26 14:58 11.89053 121.88663 1434 ft 163 kts 62°
2026-04-26 14:58 11.89556 121.89663 1198 ft 150 kts 62°
2026-04-26 14:59 11.90005 121.90559 1000 ft 134 kts 62°
2026-04-26 14:59 11.90419 121.91384 837 ft 129 kts 62°
2026-04-26 14:59 11.90830 121.92200 669 ft 129 kts 63°
2026-04-26 14:59 11.91102 121.92741 559 ft 128 kts 62°
2026-04-26 15:00 11.91644 121.93819 334 ft 128 kts 63°
2026-04-26 15:00 11.92056 121.94628 168 ft 127 kts 62°
2026-04-26 15:00 11.92455 121.95415 34 ft 122 kts 62°
2026-04-26 15:00 11.92784 121.96061 32 ft 77 kts 63°
2026-04-26 15:01 11.92923 121.96339 32 ft 30 kts 63°
2026-04-26 15:01 11.92962 121.96445 32 ft 10 kts 123°
2026-04-26 15:01 11.92897 121.96491 32 ft 12 kts 151°
2026-04-26 15:01 11.92824 121.96526 32 ft 11 kts 168°
2026-04-26 15:02 11.92761 121.96476 32 ft 13 kts 243°
2026-04-26 15:02 11.92716 121.96388 32 ft 14 kts 242°
2026-04-26 15:02 11.92668 121.96290 32 ft 13 kts 243°
2026-04-26 15:02 11.92641 121.96264 32 ft 4 kts 173°
2026-04-26 15:03 11.92614 121.96274 32 ft 1 kts 154°
2026-04-26 15:03 11.92610 121.96276 32 ft 0 kts 154°